Weather History for Stevens Point, WI

Change the Weather History Date:

Monday, January 7, 2013

  Actual Average Record
Temperature  
Mean Temperature 20 °F -  
Max Temperature 36 °F 21 °F 45 °F (1961)
Min Temperature 5 °F 3 °F -30 °F (1951)
Degree Days  
Heating Degree Days 44    
Moisture  
Dew Point 16 °F    
Average Humidity 75    
Maximum Humidity 94    
Minimum Humidity 54    
Precipitation  
Precipitation 0.00 in - - ()
Sea Level Pressure  
Sea Level Pressure 29.99 in    
Wind  
Wind Speed 8 mph (SW)    
Max Wind Speed 21 mph    
Max Gust Speed 29 mph    
Visibility 10 miles    
Events      
Averages and records for this station are not official NWS values.
T = Trace of Precipitation, MM = Missing Value Source: NWS Daily Summary

Daily Weather History Graph

Daily Weather History Graph

Search for Another Location

Airport:

Trip Planner

Search our weather history database for the weather conditions in past years. The results will help you decide how hot, cold, wet, or windy it might be!

Date:

Astronomy

Jan. 07, 2013 Rise Set
Actual Time 7:34 AM CST 4:35 PM CST
Civil Twilight 7:01 AM CST 5:08 PM CST
Nautical Twilight 6:24 AM CST 5:44 PM CST
Astronomical Twilight 5:49 AM CST 6:19 PM CST
Moon 2:55 AM CST (1/7) 12:48 PM CST (1/7)
Length of Visible Light 10h 06m
Length of Day
9h 00m
Waning Crescent, 22% of the Moon is Illuminated
Jan 7
Waning Crescent
Jan 11
New
Jan 18
First Quarter
Jan 26
Full
Feb 3
Last Quarter

Hourly Weather History & Observations

Time (CST) Temp. Windchill Dew Point Humidity Pressure Visibility Wind Dir Wind Speed Gust Speed Precip Events Conditions
12:15 AM 5.7 °F - 3.2 °F 89% 30.17 in 10.0 mi Calm Calm - N/A   Clear
12:35 AM 7.3 °F - 4.8 °F 89% 30.16 in 10.0 mi Calm Calm - N/A   Clear
12:55 AM 7.3 °F - 4.8 °F 89% 30.16 in 7.0 mi Calm Calm - N/A   Clear
1:15 AM 8.2 °F 1.6 °F 5.9 °F 90% 30.16 in 7.0 mi South 3.5 mph - N/A   Clear
1:35 AM 9.0 °F 0.6 °F 7.0 °F 92% 30.15 in 10.0 mi South 4.6 mph - N/A   Clear
1:55 AM 8.1 °F -0.5 °F 5.7 °F 90% 30.15 in 10.0 mi South 4.6 mph - N/A   Clear
2:15 AM 10.2 °F -1.7 °F 7.9 °F 90% 30.15 in 10.0 mi South 8.1 mph - N/A   Clear
2:35 AM 10.9 °F -2.6 °F 8.4 °F 90% 30.13 in 10.0 mi South 10.4 mph - N/A   Clear
2:55 AM 10.8 °F -2.0 °F 8.2 °F 90% 30.13 in 10.0 mi South 9.2 mph - N/A   Clear
3:15 AM 11.1 °F -2.4 °F 8.4 °F 89% 30.11 in 10.0 mi South 10.4 mph - N/A   Clear
3:35 AM 11.1 °F -2.4 °F 8.4 °F 89% 30.09 in 10.0 mi South 10.4 mph - N/A   Clear
3:55 AM 11.7 °F -2.5 °F 8.6 °F 88% 30.08 in 10.0 mi South 11.5 mph - N/A   Clear
4:15 AM 12.4 °F -1.6 °F 9.1 °F 87% 30.07 in 10.0 mi SSW 11.5 mph 17.3 mph N/A   Clear
4:35 AM 13.3 °F 0.3 °F 9.3 °F 84% 30.06 in 10.0 mi SSW 10.4 mph - N/A   Clear
4:55 AM 13.6 °F 1.6 °F 9.1 °F 82% 30.06 in 10.0 mi SSW 9.2 mph - N/A   Clear
5:35 AM 14.5 °F 2.7 °F 9.5 °F 80% 30.04 in 10.0 mi SSW 9.2 mph - N/A   Clear
6:15 AM 15.8 °F 4.2 °F 10.4 °F 79% 30.03 in 10.0 mi South 9.2 mph - N/A   Clear
6:35 AM 17.2 °F 3.3 °F 11.7 °F 79% 30.01 in 10.0 mi SSW 13.8 mph 18.4 mph N/A   Clear
6:55 AM 17.2 °F 4.5 °F 11.5 °F 78% 30.02 in 10.0 mi South 11.5 mph - N/A   Clear
7:15 AM 17.2 °F 3.9 °F 11.3 °F 78% 30.01 in 10.0 mi South 12.7 mph - N/A   Clear
7:55 AM 19.0 °F 5.6 °F 11.8 °F 74% 29.98 in 10.0 mi SSW 13.8 mph - N/A   Clear
8:15 AM 20.1 °F 5.9 °F 12.0 °F 71% 29.99 in 10.0 mi SSW 16.1 mph 19.6 mph N/A   Clear
8:55 AM 21.2 °F 8.9 °F 12.7 °F 70% 29.98 in 10.0 mi SSW 12.7 mph - N/A   Clear
9:15 AM 22.1 °F 10.0 °F 13.1 °F 68% 29.99 in 10.0 mi SW 12.7 mph - N/A   Clear
9:35 AM 23.7 °F 13.3 °F 13.8 °F 66% 30.00 in 10.0 mi SSW 10.4 mph - N/A   Clear
9:55 AM 25.2 °F 14.4 °F 14.7 °F 65% 29.98 in 10.0 mi SSW 11.5 mph - N/A   Clear
10:55 AM 29.8 °F 19.8 °F 17.1 °F 59% 29.95 in 10.0 mi SW 12.7 mph 21.9 mph N/A   Clear
11:15 AM 31.6 °F 20.7 °F 17.8 °F 57% 29.94 in 10.0 mi SW 16.1 mph - N/A   Clear
11:35 AM 32.2 °F 20.7 °F 18.7 °F 58% 29.92 in 10.0 mi SW 18.4 mph 26.5 mph N/A   Clear
11:55 AM 33.3 °F 24.1 °F 19.4 °F 57% 29.91 in 10.0 mi SW 12.7 mph 17.3 mph N/A   Clear
12:15 PM 34.7 °F 25.9 °F 19.6 °F 54% 29.91 in 10.0 mi SW 12.7 mph 28.8 mph N/A   Clear
12:35 PM 34.3 °F 23.9 °F 20.3 °F 57% 29.90 in 10.0 mi WSW 17.3 mph 27.6 mph N/A   Clear
12:55 PM 34.7 °F 25.1 °F 20.3 °F 56% 29.89 in 10.0 mi SW 15.0 mph 24.2 mph N/A   Clear
1:15 PM 35.1 °F 26.4 °F 21.0 °F 57% 29.89 in 10.0 mi SW 12.7 mph 21.9 mph N/A   Clear
1:35 PM 35.6 °F 24.5 °F 21.2 °F 56% 29.89 in 10.0 mi WSW 20.7 mph 26.5 mph N/A   Clear
1:55 PM 36.0 °F 26.3 °F 21.7 °F 56% 29.89 in 10.0 mi SW 16.1 mph 21.9 mph N/A   Clear
2:32 PM 35.6 °F 27.5 °F 21.2 °F 56% 29.90 in 10.0 mi WSW 11.5 mph 19.6 mph N/A   Clear
2:55 PM 35.1 °F 25.9 °F 22.1 °F 59% 29.91 in 10.0 mi WSW 13.8 mph 25.3 mph N/A   Clear
3:15 PM 34.5 °F 25.7 °F 22.1 °F 61% 29.91 in 10.0 mi SW 12.7 mph 19.6 mph N/A   Clear
3:35 PM 33.8 °F 24.8 °F 22.1 °F 62% 29.91 in 10.0 mi SW 12.7 mph 19.6 mph N/A   Clear
3:55 PM 32.9 °F 22.8 °F 22.1 °F 65% 29.91 in 10.0 mi WSW 15.0 mph 23.0 mph N/A   Clear
4:15 PM 32.9 °F 23.2 °F 22.1 °F 65% 29.93 in 10.0 mi WSW 13.8 mph 20.7 mph N/A   Clear
4:35 PM 32.2 °F 23.8 °F 22.1 °F 66% 29.93 in 10.0 mi SW 10.4 mph 17.3 mph N/A   Clear
4:55 PM 32.0 °F 23.6 °F 22.1 °F 67% 29.93 in 10.0 mi WSW 10.4 mph - N/A   Clear
5:15 PM 31.8 °F 24.6 °F 22.3 °F 68% 29.93 in 10.0 mi WSW 8.1 mph - N/A   Clear
5:55 PM 29.8 °F 22.2 °F 21.9 °F 72% 29.93 in 10.0 mi SW 8.1 mph - N/A   Clear
6:15 PM 29.5 °F 23.4 °F 21.7 °F 73% 29.94 in 10.0 mi SW 5.8 mph - N/A   Clear
6:35 PM 28.0 °F 20.8 °F 21.0 °F 75% 29.94 in 10.0 mi SW 6.9 mph - N/A   Clear
6:55 PM 29.1 °F 22.1 °F 21.9 °F 74% 29.95 in 10.0 mi SW 6.9 mph - N/A   Clear
7:15 PM 28.6 °F 20.7 °F 21.9 °F 76% 29.95 in 10.0 mi SW 8.1 mph - N/A   Clear
7:35 PM 28.4 °F 21.2 °F 21.9 °F 77% 29.95 in 10.0 mi SW 6.9 mph - N/A   Clear
7:55 PM 27.3 °F 20.9 °F 21.4 °F 78% 29.95 in 10.0 mi SW 5.8 mph - N/A   Clear
8:15 PM 27.9 °F 20.6 °F 21.9 °F 78% 29.96 in 10.0 mi SW 6.9 mph - N/A   Clear
8:35 PM 27.3 °F 20.9 °F 21.7 °F 80% 29.96 in 10.0 mi SW 5.8 mph - N/A   Clear
8:55 PM 27.0 °F 20.5 °F 21.7 °F 81% 29.96 in 10.0 mi SW 5.8 mph - N/A   Clear
9:15 PM 25.9 °F 19.2 °F 21.2 °F 82% 29.96 in 10.0 mi SW 5.8 mph - N/A   Clear
9:35 PM 25.7 °F 20.1 °F 21.4 °F 84% 29.96 in 10.0 mi SW 4.6 mph - N/A   Clear
9:55 PM 25.3 °F 21.1 °F 21.2 °F 84% 29.97 in 10.0 mi WSW 3.5 mph - N/A   Clear
10:15 PM 22.5 °F 16.3 °F 19.0 °F 87% 29.97 in 10.0 mi SSW 4.6 mph - N/A   Clear
10:35 PM 23.9 °F 19.5 °F 20.8 °F 88% 29.98 in 10.0 mi SW 3.5 mph - N/A   Clear
10:55 PM 23.9 °F - 21.0 °F 89% 29.98 in 10.0 mi Calm Calm - N/A   Clear
11:35 PM 20.1 °F - 18.7 °F 94% 29.98 in 10.0 mi Calm Calm - N/A   Mostly Cloudy